Weather History for KABQ - March, 2013

Change the Weather History Date:

Sunday, March 10, 2013

  Actual Average Record
Temperature  
Mean Temperature 41 °F 47 °F  
Max Temperature 52 °F 59 °F 82 °F (1989)
Min Temperature 30 °F 35 °F 15 °F (1948)
Degree Days  
Heating Degree Days 24 18  
Month to date heating degree days 159 191  
Since 1 July heating degree days 3357 3494  
Cooling Degree Days 0 0  
Month to date cooling degree days 0 0  
Year to date cooling degree days 0 0  
Moisture  
Dew Point 22 °F    
Average Humidity 54    
Maximum Humidity 85    
Minimum Humidity 23    
Precipitation  
Precipitation T in 0.02 in 0.76 in (1974)
Month to date precipitation 0.16 0.18  
Year to date precipitation 0.51 1.04  
Snow  
Snow 0.00 in - - ()
Month to date snowfall 0.0  
Since 1 July snowfall 3.5  
Snow Depth 0.00 in    
Sea Level Pressure  
Sea Level Pressure 30.07 in    
Wind  
Wind Speed 7 mph (NNW)    
Max Wind Speed 21 mph    
Max Gust Speed 29 mph    
Visibility 10 miles    
Events Snow    
T = Trace of Precipitation, MM = Missing Value Source: NWS Daily Summary

Daily Weather History Graph

Daily Weather History Graph

Search for Another Location

Airport or City:

Trip Planner

Search our weather history database for the weather conditions in past years. The results will help you decide how hot, cold, wet, or windy it might be!

Date:

Astronomy

Mar. 10, 2013 Rise Set
Actual Time 7:23 AM MDT 7:10 PM MDT
Civil Twilight 6:58 AM MDT 7:35 PM MDT
Nautical Twilight 6:29 AM MDT 8:04 PM MDT
Astronomical Twilight 5:59 AM MDT 8:34 PM MDT
Moon 6:23 AM MDT (3/10) 6:21 PM MDT (3/10)
Length of Visible Light 12h 37m
Length of Day
11h 46m
Waning Crescent, 1% of the Moon is Illuminated
Mar 10
Waning Crescent
Mar 11
New
Mar 19
First Quarter
Mar 27
Full
Apr 2
Last Quarter

Hourly Weather History & Observations

Time (MDT) Temp. Windchill Dew Point Humidity Pressure Visibility Wind Dir Wind Speed Gust Speed Precip Events Conditions
12:52 AM 37.0 °F 30.4 °F 27.0 °F 67% 29.97 in 10.0 mi North 9.2 mph - N/A   Overcast
1:52 AM 36.0 °F 32.1 °F 27.0 °F 70% 29.97 in 10.0 mi NW 4.6 mph - N/A   Mostly Cloudy
3:52 AM 37.0 °F 32.4 °F 27.0 °F 67% 29.95 in 10.0 mi North 5.8 mph - N/A   Overcast
4:52 AM 35.1 °F - 27.0 °F 72% 29.99 in 10.0 mi Calm Calm - N/A   Overcast
5:52 AM 30.2 °F 22.6 °F 26.6 °F 86% 30.03 in 10.0 mi ESE 8.1 mph - N/A   Mostly Cloudy
6:52 AM 34.0 °F 28.0 °F 27.0 °F 75% 30.03 in 10.0 mi East 6.9 mph - N/A   Mostly Cloudy
7:52 AM 34.0 °F 29.8 °F 27.0 °F 75% 30.07 in 10.0 mi WNW 4.6 mph - N/A   Overcast
8:52 AM 33.1 °F 30.0 °F 27.0 °F 78% 30.12 in 10.0 mi NW 3.5 mph - 0.00 in Snow Light Snow
9:52 AM 35.6 °F 31.7 °F 26.6 °F 70% 30.12 in 10.0 mi NNW 4.6 mph - N/A Snow Light Snow
10:52 AM 39.0 °F 35.7 °F 27.0 °F 62% 30.11 in 10.0 mi NNW 4.6 mph - 0.00 in   Mostly Cloudy
11:52 AM 42.1 °F 36.1 °F 26.1 °F 53% 30.10 in 10.0 mi North 10.4 mph - N/A   Mostly Cloudy
12:52 PM 43.0 °F 37.2 °F 24.1 °F 47% 30.08 in 10.0 mi NNW 10.4 mph 16.1 mph N/A   Mostly Cloudy
1:52 PM 45.0 °F 40.6 °F 24.1 °F 44% 30.07 in 10.0 mi NNE 8.1 mph - N/A   Mostly Cloudy
2:52 PM 46.9 °F - 23.0 °F 39% 30.04 in 10.0 mi WNW 4.6 mph - N/A   Mostly Cloudy
3:52 PM 48.0 °F - 21.9 °F 36% 30.04 in 10.0 mi Variable 3.5 mph - N/A   Scattered Clouds
4:52 PM 51.1 °F - 16.0 °F 25% 30.03 in 10.0 mi North 13.8 mph 21.9 mph N/A   Scattered Clouds
5:52 PM 52.0 °F - 16.0 °F 24% 30.02 in 10.0 mi WNW 15.0 mph 23.0 mph N/A   Partly Cloudy
6:52 PM 50.0 °F - 18.0 °F 28% 30.05 in 10.0 mi NW 18.4 mph - N/A   Partly Cloudy
7:52 PM 48.9 °F - 16.0 °F 27% 30.08 in 10.0 mi NW 9.2 mph - N/A   Partly Cloudy
8:52 PM 46.9 °F - 10.9 °F 23% 30.12 in 10.0 mi NW 9.2 mph - N/A   Clear
9:52 PM 45.0 °F 41.2 °F 14.0 °F 29% 30.14 in 10.0 mi NNW 6.9 mph - N/A   Clear
10:52 PM 44.1 °F 41.5 °F 15.1 °F 31% 30.14 in 10.0 mi NW 4.6 mph - N/A   Clear
11:52 PM 41.0 °F - 15.1 °F 35% 30.14 in 10.0 mi Calm Calm - N/A   Clear
12:52 AM 36.0 °F - 18.0 °F 48% 30.17 in 10.0 mi Calm Calm - N/A   Clear